Theta_e
320 319 322 321 327 325 327 325 322 322 322 322 325 335 340 347 340 338 344 341 337 335 336 335 334 331 332 333 333 332 332 333 333 331 329 327 326 326 325 325 325 325 325 324 323 323 323 325 329
319 321 320 320 326 325 323 321 322 322 320 340 332 340 345 350 349 348 346 342 343 334 337 337 334 333 331 331 331 331 331 331 330 330 328 326 325 325 326 327 326 326 327 325 324 324 324 324 330
321 322 324 322 322 324 324 321 322 320 318 319 337 341 346 351 349 346 347 342 343 336 336 338 337 335 332 330 331 331 331 330 331 331 330 328 326 326 326 327 327 326 328 327 325 325 325 325 328
320 320 317 325 324 323 322 323 320 320 320 321 333 339 344 345 349 349 349 344 343 337 334 336 338 338 334 331 330 331 331 331 331 331 331 330 328 327 328 330 328 325 327 329 327 327 327 327 326
316 319 324 323 322 322 320 320 320 323 321 327 325 338 344 345 346 348 346 343 341 336 334 335 337 338 337 333 332 332 332 332 332 332 332 331 330 329 330 331 329 325 328 329 328 328 328 328 328
321 318 324 322 321 319 320 321 321 324 323 322 330 337 342 341 347 347 344 342 340 336 334 334 335 336 338 338 334 333 333 333 332 333 333 333 332 331 332 333 332 330 326 328 328 327 326 325 326
322 321 321 321 321 322 322 321 323 323 324 324 328 329 337 343 346 345 343 342 340 337 335 335 335 335 337 338 338 336 335 334 334 334 334 334 333 333 334 333 333 331 328 326 326 325 323 320 321
318 320 320 320 322 322 321 321 322 324 324 321 325 328 328 338 345 344 344 343 341 338 336 336 336 335 337 338 339 339 337 336 335 335 335 335 335 334 334 334 334 332 331 327 325 323 319 316 316
313 322 322 321 321 322 319 322 321 321 323 322 323 328 327 335 344 344 344 344 342 340 338 337 337 337 340 340 340 340 340 339 338 336 336 336 337 336 335 336 334 333 332 331 325 323 319 313 312
318 320 319 319 319 320 320 321 323 323 323 323 323 323 336 339 344 345 345 345 344 342 339 338 337 338 346 346 342 342 342 341 340 338 338 338 337 338 337 336 335 334 333 333 330 324 319 313 308
316 319 317 318 318 318 322 323 322 324 326 324 326 325 333 339 342 344 344 344 343 344 341 339 338 339 343 343 344 344 345 343 341 340 339 338 338 337 337 337 335 334 334 333 331 329 324 316 309
320 318 318 320 320 321 324 325 325 324 326 325 324 324 326 338 340 342 343 343 342 343 343 341 340 339 341 340 341 340 339 340 340 340 340 339 339 338 337 337 336 334 333 333 331 329 329 326 315
322 322 320 319 321 323 323 325 325 325 325 323 322 321 322 325 333 337 339 340 342 342 342 342 341 340 340 339 341 340 338 337 338 338 338 338 338 339 337 336 335 334 334 333 332 331 330 329 327
323 322 324 324 325 324 325 325 323 325 323 323 322 323 323 322 323 326 335 338 340 342 341 341 342 341 339 338 339 338 337 337 337 337 337 338 337 336 338 337 336 335 334 333 332 331 331 330 330
324 326 325 325 325 325 323 326 324 325 321 321 320 320 320 320 319 320 325 334 338 339 341 340 341 341 340 340 340 339 336 335 335 336 336 336 336 336 337 337 337 335 334 332 331 331 330 329 329
326 325 327 323 323 324 325 326 324 322 318 320 318 320 321 322 321 321 322 323 326 336 340 340 340 341 341 341 341 339 337 336 335 335 335 336 336 338 337 336 336 336 334 332 330 330 329 328 327
326 328 329 326 324 323 325 326 324 320 319 320 318 321 322 322 323 323 324 326 328 325 337 338 339 342 342 341 342 341 340 337 336 336 337 337 336 336 336 336 335 335 335 333 333 331 329 327 327
327 329 327 325 323 321 323 325 324 322 319 321 318 321 322 323 323 323 327 332 333 332 337 338 339 339 339 339 339 338 338 338 336 335 337 336 335 336 335 335 333 333 331 331 331 330 329 327 326
324 325 325 324 323 322 324 324 323 322 321 322 319 321 322 323 321 324 327 330 333 334 334 335 336 339 339 339 338 338 337 335 333 333 332 331 332 332 331 330 326 325 323 326 325 327 326 324 324
326 326 326 323 322 322 324 325 323 323 323 323 322 320 321 322 323 325 325 327 331 334 335 336 337 338 339 338 335 331 326 319 314 312 313 313 313 313 313 312 313 313 316 317 316 317 321 321 321
327 328 327 325 324 324 323 325 324 323 321 320 317 318 321 323 324 325 323 326 327 329 330 335 335 331 326 319 315 314 311 312 312 311 312 312 313 313 313 313 312 310 313 314 314 314 315 315 317
327 325 326 326 327 329 322 324 321 322 322 319 320 317 320 321 322 322 319 318 319 318 318 317 315 314 313 311 310 309 310 313 311 311 311 311 310 310 309 306 304 303 303 308 310 310 314 314 315
323 321 325 326 327 327 326 325 322 322 323 322 320 319 319 320 321 319 317 315 314 315 316 314 313 312 311 309 308 308 309 309 307 305 304 303 302 302 302 301 301 301 300 302 306 308 310 313 314
322 323 323 324 326 329 324 323 321 321 322 321 320 319 318 318 319 318 315 313 311 311 314 313 310 309 309 308 308 306 305 303 301 301 301 301 302 302 301 302 301 301 302 304 305 307 309 310 311
323 325 328 330 330 329 322 324 322 321 321 323 323 318 315 316 319 317 315 313 311 310 310 309 308 306 305 303 302 301 301 301 301 302 303 304 304 303 303 301 300 301 302 303 304 306 307 309 310
326 325 324 323 323 323 323 326 323 320 318 319 318 318 315 315 317 315 314 312 310 309 309 306 305 304 302 301 300 300 300 301 301 302 302 303 302 302 302 301 301 301 302 303 304 305 306 308 310
322 326 321 325 326 328 322 323 321 313 313 314 316 315 314 314 314 314 312 310 309 308 307 304 304 303 301 299 299 300 300 300 301 301 301 302 301 301 300 300 300 300 300 301 303 304 305 306 308
323 322 326 325 329 329 322 325 325 316 318 316 316 315 313 311 312 312 310 309 308 307 303 302 302 301 299 298 299 299 300 301 301 301 301 300 300 300 299 299 299 300 301 301 302 302 302 302 303
323 325 325 324 328 326 324 325 324 323 319 317 317 314 311 309 310 310 308 306 306 303 302 302 301 299 298 299 300 300 301 300 299 300 299 299 298 298 297 297 297 298 299 301 301 301 300 300 300
322 323 324 327 328 327 328 326 318 322 320 319 315 311 308 308 309 309 306 304 303 302 301 301 299 299 299 299 300 301 300 299 298 298 297 296 295 295 295 295 295 296 296 296 298 298 298 299 299
Wind_Speed
3 6 4 2 1 1 0 2 2 3 2 2 1 1 4 4 1 3 3 16 10 23 30 29 28 28 28 27 27 26 26 27 26 24 22 20 19 18 16 14 13 12 12 12 11 11 10 10 11
3 3 3 2 0 3 3 2 3 4 1 2 4 2 4 4 1 3 6 16 9 24 30 29 28 27 26 25 25 26 26 25 24 22 20 19 17 17 15 13 11 10 12 13 13 11 10 11 11
1 4 1 3 2 1 1 3 7 4 5 4 3 4 1 4 0 6 1 16 9 22 28 28 28 26 25 24 24 24 24 24 23 21 20 18 17 16 15 13 11 10 12 12 13 12 12 11 12
1 2 3 0 1 2 3 7 5 4 3 4 4 5 0 1 1 2 5 12 12 20 26 27 27 26 26 25 24 24 22 22 21 20 19 18 17 16 15 14 11 10 11 10 11 11 10 11 11
5 2 1 0 2 3 4 5 4 5 2 3 1 3 0 2 1 2 9 9 12 20 24 24 25 25 24 24 24 23 22 21 21 19 18 17 16 15 14 13 10 9 9 8 9 10 10 10 10
2 1 1 3 3 3 5 6 2 4 4 2 4 3 2 1 4 7 8 9 11 19 21 21 22 22 23 24 23 22 22 21 21 19 18 16 15 15 14 12 9 7 7 7 6 8 8 8 9
2 2 3 2 3 4 4 1 3 4 2 2 5 3 1 3 8 9 9 9 11 16 18 20 20 21 20 22 23 22 21 21 20 19 18 16 15 14 13 12 10 7 6 5 6 6 7 7 7
3 2 4 5 4 5 2 1 2 2 1 1 3 3 1 3 14 10 10 10 12 15 18 19 19 20 20 21 21 22 22 20 20 19 18 16 14 13 12 12 11 9 7 6 6 7 7 8 8
3 3 5 5 7 4 1 3 1 3 3 1 2 4 1 3 15 11 10 11 13 15 17 19 18 17 18 18 19 19 19 19 19 18 17 16 14 14 13 13 11 10 8 6 7 9 8 9 9
5 4 9 5 5 3 1 2 3 1 1 2 2 3 3 7 12 13 14 15 14 15 18 19 19 17 16 17 18 17 18 19 18 18 18 16 15 14 13 12 12 11 9 7 7 10 11 9 11
5 8 6 5 10 5 4 4 2 3 5 6 5 6 5 7 13 14 17 17 18 16 17 20 20 18 17 17 17 21 18 18 19 19 19 18 16 14 13 11 11 11 11 9 8 11 12 12 11
5 8 7 5 5 4 3 4 5 8 9 8 10 7 5 10 12 17 18 19 16 17 17 21 22 21 19 17 18 19 17 17 19 19 18 18 18 16 13 13 12 12 10 11 11 10 13 15 16
7 8 6 9 6 5 3 10 7 17 14 15 11 7 10 10 13 19 20 17 15 18 20 24 24 23 22 19 16 18 18 17 17 17 18 17 17 17 14 13 13 13 13 14 14 14 14 16 19
2 6 9 5 7 5 7 7 6 11 3 6 9 13 12 13 19 19 17 21 20 19 21 24 25 25 22 20 17 15 15 15 15 15 16 16 16 16 16 15 16 16 18 19 18 18 18 18 19
2 10 11 9 6 7 8 9 12 17 4 8 9 12 11 11 11 16 15 19 16 17 19 24 25 25 22 20 15 14 12 12 13 13 12 13 15 16 17 18 20 20 16 19 19 21 21 21 21
3 2 9 6 8 6 10 18 11 7 1 6 7 6 6 5 2 0 3 7 11 14 17 19 21 24 23 21 18 15 12 11 11 10 10 11 13 15 17 17 19 21 20 21 18 21 22 24 24
4 8 9 9 11 5 11 10 10 6 1 6 4 4 5 4 1 2 1 3 6 10 13 16 20 24 24 21 17 13 11 9 8 7 6 6 9 12 15 18 21 23 25 26 26 28 28 27 31
11 8 8 13 2 5 8 14 14 7 5 8 6 5 6 5 4 1 1 2 5 9 11 15 19 21 21 19 17 13 10 8 5 4 3 4 3 6 9 13 12 13 17 21 24 27 29 28 26
10 18 17 7 7 4 11 15 16 15 11 13 8 8 8 8 2 2 3 4 8 12 14 16 19 19 22 22 19 19 15 10 9 7 4 1 1 3 5 7 10 11 13 15 19 23 24 24 26
17 19 18 8 9 4 11 21 17 16 18 16 16 13 12 9 7 5 7 8 10 15 18 20 21 23 24 23 18 18 16 14 14 10 8 7 5 2 2 5 7 9 10 12 13 13 14 15 17
21 23 18 13 4 9 8 28 22 20 17 15 13 12 13 14 13 10 11 13 15 17 20 25 25 25 23 22 22 20 16 13 10 7 4 1 3 5 8 11 13 17 16 16 17 18 18 18 13
22 17 14 14 7 11 3 18 17 6 13 10 15 12 14 16 13 13 14 15 16 18 23 25 26 26 23 19 16 13 11 6 3 1 2 5 9 12 15 18 22 24 25 22 23 23 24 22 21
20 13 16 14 15 12 24 10 11 12 21 17 15 17 16 17 18 16 13 16 15 19 21 23 23 21 19 17 14 12 11 8 4 3 6 10 13 15 18 20 23 26 28 29 27 27 27 27 27
11 2 6 5 8 11 23 15 27 18 18 11 13 14 15 17 18 17 19 18 16 15 20 22 21 19 17 16 14 11 7 3 2 5 9 12 15 18 21 23 25 26 25 25 25 25 27 29 30
21 15 6 7 8 13 11 14 31 3 13 19 17 15 15 17 20 19 18 18 20 19 20 20 20 18 17 14 10 6 2 1 4 6 10 11 14 17 21 25 28 28 28 26 25 25 27 29 30
26 20 8 17 13 16 9 15 18 3 6 10 7 11 16 19 19 19 18 20 21 21 20 20 19 18 14 10 6 2 1 3 6 9 12 14 17 19 21 24 25 26 26 26 26 26 27 28 30
21 18 30 4 1 4 12 23 15 6 6 7 9 14 19 21 21 21 18 22 23 20 20 21 18 16 11 6 2 2 3 7 11 14 18 17 19 20 22 22 23 22 23 25 26 28 29 28 27
14 26 11 13 14 20 16 21 18 10 15 14 14 16 18 20 21 20 18 23 22 20 21 19 17 13 8 5 2 4 7 10 14 17 18 19 20 21 22 22 22 23 24 24 24 27 29 30 31
18 19 12 10 9 13 19 17 10 17 18 18 19 17 19 20 20 19 17 21 20 19 19 18 14 11 7 3 2 6 9 13 17 17 18 18 20 21 22 22 26 26 28 27 26 26 29 30 32
28 23 23 9 17 13 12 21 5 11 17 16 15 17 18 20 21 20 16 20 20 19 18 16 13 9 5 2 4 8 13 16 17 18 19 18 19 22 22 23 25 25 28 32 29 31 31 32 33
Wind_Direction
328 337 351 31 242 339 231 93 297 323 260 267 11 196 111 53 58 97 131 172 161 177 177 180 180 177 174 166 161 158 156 156 155 154 152 149 149 149 150 150 149 147 144 145 142 142 139 135 134
335 349 51 89 84 160 121 266 312 300 303 102 75 46 43 71 66 131 150 179 168 176 178 179 182 181 177 172 166 164 162 161 159 156 153 151 150 150 150 151 149 152 146 146 145 148 144 142 144
3 39 40 71 100 171 111 249 318 293 270 224 104 42 79 120 68 154 232 185 185 180 180 183 183 182 181 180 177 174 169 165 163 160 157 154 152 152 153 153 151 151 146 151 152 157 154 153 154
335 62 85 24 218 240 247 309 319 321 130 80 119 87 272 359 42 325 193 183 187 182 184 187 187 187 187 186 185 180 175 171 167 164 162 157 156 157 157 153 149 156 159 164 160 162 163 161 164
47 63 79 103 248 263 256 285 305 39 96 58 183 130 43 76 291 173 168 176 180 182 186 189 191 193 193 192 189 184 181 177 172 171 167 165 163 163 164 160 152 148 166 184 170 172 177 176 174
88 75 198 222 229 249 270 267 298 38 42 54 71 120 173 298 181 169 176 178 181 186 188 192 194 199 198 198 196 192 187 182 179 177 173 174 174 173 169 164 164 158 159 190 190 175 185 193 191
149 147 217 225 258 278 216 217 60 8 14 73 138 133 218 251 189 184 185 177 184 191 191 194 197 199 204 203 201 199 195 188 185 183 181 183 184 177 176 175 178 176 166 193 219 189 189 202 204
124 162 175 220 219 255 211 76 166 8 259 131 209 158 198 204 191 186 180 183 190 194 197 197 199 198 200 203 204 202 199 194 192 191 190 188 184 186 187 184 188 190 186 196 230 230 193 206 212
141 204 225 215 184 239 151 15 200 301 255 312 218 178 59 150 184 182 178 187 190 197 200 201 202 202 200 202 200 201 198 198 197 196 196 192 191 191 193 195 197 199 203 206 224 247 229 209 218
190 207 212 219 214 231 292 277 306 206 293 256 248 228 107 171 192 199 204 203 199 196 200 201 205 205 197 199 197 195 198 197 197 199 198 200 203 199 198 202 205 210 219 232 230 246 254 234 221
180 234 203 231 231 252 295 274 223 277 255 203 197 249 189 189 214 221 228 224 209 201 201 201 205 205 199 195 192 195 197 200 204 203 204 207 207 207 203 199 202 203 220 233 254 245 255 258 245
228 232 214 231 214 192 243 297 287 254 254 247 242 238 215 204 218 223 232 231 208 200 204 204 204 204 202 195 193 200 199 201 207 210 214 216 214 211 212 212 212 215 216 236 250 250 250 257 258
230 242 216 230 243 244 234 247 259 267 275 265 275 240 244 237 237 240 237 239 214 204 206 209 203 201 202 199 194 197 201 205 211 214 219 225 224 224 222 226 225 230 240 248 255 258 264 266 261
236 244 253 239 243 225 228 248 182 264 260 272 265 262 260 249 244 244 231 231 218 207 209 208 205 203 198 197 197 195 201 206 213 218 225 226 233 238 236 239 241 245 253 258 256 253 258 263 263
251 278 273 245 235 233 199 244 222 255 282 282 289 270 263 259 270 243 248 242 232 211 209 208 204 202 198 194 191 193 197 201 208 217 224 231 234 242 248 247 251 254 250 253 253 254 253 255 258
210 213 265 262 220 224 195 256 255 213 195 305 291 274 273 274 253 112 265 246 231 209 205 203 201 198 197 192 190 184 184 190 197 206 217 226 234 243 253 253 259 263 266 268 261 259 256 254 251
217 229 222 275 205 151 212 259 245 171 231 312 296 236 241 245 181 75 312 237 192 199 191 191 195 191 191 189 181 178 171 178 191 201 217 237 255 262 262 268 273 275 277 276 274 272 266 262 261
220 218 235 244 173 196 215 246 261 241 250 294 303 222 217 213 218 5 39 156 144 151 165 169 183 184 187 179 168 161 158 160 175 190 207 238 259 289 291 286 288 298 292 289 287 284 278 273 262
233 231 240 229 240 261 248 253 250 264 271 271 254 233 211 213 187 127 120 142 136 136 147 165 167 175 173 162 158 157 152 146 134 129 115 83 300 297 294 285 292 297 292 292 291 287 283 273 270
229 240 240 270 241 260 272 268 262 256 259 260 255 216 207 195 179 155 144 159 161 146 145 154 157 163 164 156 150 141 137 126 113 100 93 93 92 51 309 300 304 305 303 299 294 288 280 276 271
225 228 233 242 316 270 297 282 263 254 243 231 223 220 203 197 177 159 150 143 143 142 141 143 142 138 136 136 132 126 114 108 98 89 94 115 271 276 286 295 298 297 294 287 284 278 270 270 264
234 220 234 228 246 253 194 275 266 260 240 228 227 204 200 185 173 163 151 140 134 129 131 129 127 125 125 127 119 112 106 105 91 74 318 304 299 296 297 298 298 298 297 289 282 278 268 263 257
240 207 217 220 230 266 247 272 258 243 240 232 223 210 203 187 175 166 156 145 137 137 132 129 125 122 123 121 119 118 115 120 141 263 288 292 291 293 295 301 304 301 297 292 286 278 266 258 255
207 236 193 199 209 241 245 227 265 232 234 232 223 208 196 182 172 166 162 154 146 147 141 136 128 123 125 123 118 117 124 151 248 292 300 304 304 302 300 303 302 299 291 287 285 281 273 266 262
195 183 186 207 201 242 176 212 251 277 227 225 215 197 182 180 174 170 169 164 154 154 148 141 134 128 130 125 121 123 141 266 303 310 307 301 300 300 300 304 304 303 299 292 288 284 279 271 264
198 194 202 219 225 252 177 232 246 239 218 197 207 187 171 175 176 174 169 164 161 159 156 145 140 137 136 130 132 147 320 327 314 309 307 303 300 298 300 304 303 299 294 290 288 283 277 270 265
199 204 221 275 13 262 222 251 272 198 225 213 195 168 180 180 176 173 169 168 165 165 160 152 145 142 141 136 157 240 301 314 314 311 307 304 302 303 303 297 294 290 290 288 285 281 276 272 265
196 202 199 220 223 233 241 247 242 190 203 200 198 197 184 176 173 173 172 171 169 162 159 156 150 147 148 157 214 306 321 315 310 306 302 305 305 304 302 301 298 295 293 287 280 277 275 275 276
200 199 210 208 218 221 245 248 233 204 202 198 206 190 177 177 173 170 170 170 165 160 160 157 155 155 159 181 288 311 314 313 312 310 309 309 307 309 307 303 300 295 291 288 283 279 278 273 270
201 201 204 202 207 228 253 259 154 210 201 201 191 186 182 178 171 169 166 164 162 167 165 166 165 162 177 238 299 312 316 316 316 315 310 308 307 309 307 303 301 298 296 294 287 284 278 275 272